This demonstration page uses our WeatherBlox Daily Observations layout. Learn more.

Left ArrowRight Arrow

Hourly Observations for April 27, 2019

Temp ( °F °C ) Dew Point ( °F °C ) Humidity (%) Winds ( mph kmh ) Pressure ( in mb ) Visibility ( mi km ) Precip ( " mm )
12:53 am 00:53 Clear 57 13.9 39 3.9 51 51 SW 5 7 29.98 1015 10 16 0.00 0.00
1:53 am 01:53 Clear 53 11.7 44 6.7 72 72 W 3 6 29.98 1015 10 16 0.00 0.00
2:53 am 02:53 Clear 52 11.1 41 5 66 66 S 3 6 29.98 1015 10 16 0.00 0.00
3:53 am 03:53 Clear 49 9.4 43 6.1 80 80 Calm 29.99 1016 10 16 0.00 0.00
4:53 am 04:53 Clear 48 8.9 43 6.1 83 83 VRB 3 6 30.01 1016 10 16 0.00 0.00
5:53 am 05:53 Clear 46 7.8 44 6.7 93 93 Calm 30.01 1016 10 16 0.00 0.00
6:53 am 06:53 Clear 46 7.8 43 6.1 89 89 Calm 30.03 1017 10 16 0.00 0.00
7:53 am 07:53 Sunny 51 10.6 40 4.4 66 66 Calm 30.05 1018 10 16 0.00 0.00
8:53 am 08:53 Sunny 56 13.3 41 5 57 57 WNW 5 7 30.06 1018 10 16 0.00 0.00
9:53 am 09:53 Sunny 60 15.6 40 4.4 47 47 WSW 3 6 30.06 1018 10 16 0.00 0.00
10:53 am 10:53 Sunny 65 18.3 39 3.9 39 39 VRB 6 9 30.06 1018 10 16 0.00 0.00
11:53 am 11:53 Sunny 68 20 38 3.3 33 33 VRB 6 9 30.04 1017 10 16 0.00 0.00
12:53 pm 12:53 Sunny 71 21.7 39 3.9 31 31 VRB 5 7 30.01 1016 10 16 0.00 0.00
1:53 pm 13:53 Sunny 73 22.8 36 2.2 26 26 Calm 29.99 1016 10 16 0.00 0.00
2:53 pm 14:53 Sunny 75 23.9 36 2.2 24 24 undefined N/A 29.96 1015 10 16 0.00 0.00
3:53 pm 15:53 Sunny 76 24.4 38 3.3 25 25 VRB 6 9 29.93 1014 10 16 0.00 0.00
4:53 pm 16:53 Sunny 78 25.6 40 4.4 26 26 SSW 9 15 29.92 1013 10 16 0.00 0.00
7:53 pm 19:53 Sunny 74 23.3 43 6.1 33 33 SSW 7 11 29.91 1013 10 16 0.00 0.00
8:53 pm 20:53 Clear 70 21.1 44 6.7 39 39 S 5 7 29.92 1013 10 16 0.00 0.00
9:53 pm 21:53 Clear 66 18.9 46 7.8 49 49 Calm 29.94 1014 10 16 0.00 0.00
10:53 pm 22:53 Clear 64 17.8 46 7.8 52 52 SSW 3 6 29.94 1014 10 16 0.00 0.00
11:53 pm 23:53 Clear 60 15.6 48 8.9 65 65 Calm 29.93 1014 10 16 0.00 0.00

Powered by AerisWeather